Regional Weather Roundup
Issued by NWS

Home | Current Version | Previous Version | Text Only | Print | Product List | Glossary Off
Versions: 1 2 3 4 5 6 7 8 9 10 11 12 13 14 15 16 17 18 19 20 21 22 23 24 25 26 27 28 29 30 31 32 33 34 35 36 37 38 39 40 41 42 43 44 45 46 47 48 49 50

000
ASUS43 KIND 160809
RWRIN

WEATHER ROUNDUP FOR INDIANA
NATIONAL WEATHER SERVICE INDIANAPOLIS IN
300 AM EST TUE JAN 16 2018

NOTE: "FAIR" INDICATES FEW OR NO CLOUDS BELOW 12,000 FEET WITH NO
SIGNIFICANT WEATHER AND/OR OBSTRUCTIONS TO VISIBILITY.

* - STATION DOES NOT REPORT WEATHER SUCH AS PRECIPITATION OR FOG.

+ - STATION NOT QUALITY CONTROLLED BY THE NATIONAL WEATHER SERVICE.
    USE DATA WITH CAUTION...ESPECIALLY DEWPOINT AND RELATIVE
    HUMIDITY OBSERVATIONS.

INZ001>003-010>013-019-020-160900-
NORTHWEST INDIANA

CITY           SKY/WX    TMP DP  RH WIND       PRES   REMARKS
GARY /AIRPORT/ LGT SNOW   8   1  76 SW7       30.38R WCI  -4
KNOX *+        CLOUDY     3   0  85 SW14      30.38R WCI -15
LA PORTE +     FLURRIES   3  -1  81 SW12      30.36R WCI -13
MICHIGAN CITY+ LGT SNOW   9   1  72 SW12      30.36R WCI  -6
MONTICELLO +   FAIR       0  -6  75 W12       30.42S WCI -17
RENSSELAER +   FLURRIES   1  -6  71 SW15      30.42R WCI -18
VALPARAISO     LGT SNOW   4  -1  80 SW15      30.37R WCI -14

$$

LMZ046-743>745-160900-
SOUTHERN LAKE MICHIGAN

STATION/POSITION TIME  TEMP    WIND        PRES    WAVE
                       AIR SEA DIR/SP/G            HT
                 (UTC) (F)     (DEG/KT/KT) (MB)    (FT)
BURNS HARBOR     0801    7     220/ 14/ 19 1028.4
MICHIGAN CITY    0740          190/ 16/ 17   N/A

$$

INZ004-005-014>016-021>024-160900-
NORTH CENTRAL INDIANA

CITY           SKY/WX    TMP DP  RH WIND       PRES   REMARKS
GOSHEN         FAIR       0  -4  83 SW10      30.36R WCI -16
LOGANSPORT +   FAIR       1  -4  78 W16       30.43R WCI -18
PERU/GRISSOM   CLOUDY     1  -3  84 W13       30.39S WCI -17
ROCHESTER +    CLOUDY     5   0  78 W10       30.39S HAZE    WCI -10
SOUTH BEND     CLOUDY     2  -2  83 S10       30.36R WCI -14
WARSAW +       FLURRIES   3  -2  78 SW9       30.36S WCI -11

$$

INZ006>009-017-018-025>027-160900-
NORTHEAST INDIANA

CITY           SKY/WX    TMP DP  RH WIND       PRES   REMARKS
AUBURN +       FAIR       3   0  85 W6        30.36R WCI  -8
FORT WAYNE     MOCLDY     7   1  76 W13       30.37R WCI  -9
HUNTINGTON +   CLOUDY     5  -1  76 W12G18    30.38S WCI -11
KENDALLVILLE + FAIR       1  -2  85 W9        30.34R WCI -14

$$

INZ028-029-035-036-043>045-051>053-160900-
WEST CENTRAL INDIANA

CITY           SKY/WX    TMP DP  RH WIND       PRES   REMARKS
CRAWFORDSVL +  FAIR      -1  -5  84 MISG        N/A
GREENCASTLE +  FAIR       1  -4  78 CALM      30.47R
LAFAYETTE      CLOUDY     0  -5  79 W12       30.46R WCI -17
TERRE HAUTE    FAIR       0  -7  72 W10       30.52R WCI -16

$$

INZ030>032-037>040-046>048-054>057-064-065-160900-
CENTRAL INDIANA

CITY           SKY/WX    TMP DP  RH WIND       PRES   REMARKS
FISHERS *+       N/A      1   0  92 W6        30.45R WCI -10
FRANKFORT +    FAIR       3  -2  77 W14       30.44R WCI -15
GREENWOOD *+   FAIR       4  -3  74 W9        30.45R WCI -10
INDIANAPOLIS   FAIR      -1  -5  82 SW10      30.45R WCI -17
-EAGLE CREEK   FAIR       2  -4  76 W6        30.44R WCI  -9
MARION +       FAIR       1  -3  80 W10       30.41R WCI -15
MT COMFORT *+  FAIR       0  -2  92 W9        30.44R WCI -16
SHELBYVILLE    FAIR       5  -3  69 W9        30.45R WCI  -9
ZIONSVILLE +   FAIR       0  -4  85 SW7       30.43R WCI -13

$$

INZ033-034-041-042-049-050-058-059-160900-
EAST CENTRAL INDIANA

CITY           SKY/WX    TMP DP  RH WIND       PRES   REMARKS
MUNCIE         FAIR       4  -3  73 W13       30.41R WCI -13
RICHMOND +     FAIR       5   0  78 W12       30.40R WCI -11

$$

INZ060-061-067>069-081>083-085>088-160900-
SOUTHWEST INDIANA

CITY           SKY/WX    TMP DP  RH WIND       PRES   REMARKS
EVANSVILLE     FAIR       8  -1  66 NW9G18    30.57R WCI  -5
HUNTINGBURG +  CLOUDY     8   0  69 NW12      30.55R WCI  -7
WASHINGTON +   FAIR       6  -4  62 NW12      30.55R WCI  -9

$$

INZ062-063-066-070>080-084-089>092-160900-
SOUTH CENTRAL AND SOUTHEAST INDIANA

CITY           SKY/WX    TMP DP  RH WIND       PRES   REMARKS
BATESVILLE *+    N/A    N/A N/A N/A MISG        N/A
BEDFORD +      FAIR       7  -2  66 W5        30.49R WCI  -2
BLOOMINGTON    FAIR       3  -5  69 W8        30.48R WCI -10
MADISON *+     CLOUDY    14   5  67 W5        30.47R WCI   6
NORTH VERNON + FAIR       7   1  78 NW9       30.46R WCI  -7
SEYMOUR +      FAIR      10   1  67 W9        30.50R WCI  -2

$$





USA.gov is the U.S. government's official web portal to all federal, state and local government web resources and services.